Showing default

GAOFEN 1-03, 43260

Orbit data source: Space-Track

GAOFEN 1-03, 43260 is a payload satellite owned by GGKGJ (CN) in SSO that was launched on Sat, 31 Mar 2018 UTC via a CHANG ZHENG 4C launch vehicle from the Taiyaun Space Center, China (TSC). Payloads include a variety of satellites, spacecraft, and rockets equipped with specific instruments for various scientific and technological missions. These include communications satellites like Starlink; space stations such as the ISS; scientific satellites like the Hubble; Earth observation satellites from companies like Planet Labs, Umbra, and HawkEye 360; GPS; miniature CubeSats for education and research; and military/defense satellites.

Loading next visibility...
GAOFEN 1-03 details
Identifier
43260, 2018-031B
Orbit
SSO
Last TLE update5 hours ago
Origin
Flag of CNGGKGJ (CN / PRC)
ManufacturerDFH
MissionOperational Civil Imaging
Bus & MotorCAST-2000, AOCS
Mass805 kg wet, ~700 kg dry
Launch date (UTC)
2018-03-31 (7 years ago)
Launch vehicle
CHANG ZHENG 4C
Launch site
Taiyaun Space Center, China (TSC)
Object type
Payload
Rocket body
Debris
Shape & HBRBox + 2 Pan, 4 m
Radar Cross Section4.991 m², Large (>1 m²)

Expand to show TLE details & history

TLE from 5 hours ago
0 GAOFEN 1-03
1 43260U 18031B   25018.78185193  .00001970  00000-0  28915-3 0  9991
2 43260  97.7934  85.1039 0003874 241.6899 118.3921 14.76590697366782
Epoch: 2025-01-18T18:45Z
Definitive object data (Epoch: 2025-01-18T18:45:52.006Z)
Latitude-0.00002°
Longitude45.21101°
Altitude644.42 km
Speed7.535 km/s
True Right ascension05h 40m 24s
True Declination0° 00' 00"
Sunlit
Object was in full shadow at TLE epoch
Visualization TLE readout
Latitude-34.3037°
Longitude50.72978°
Altitude652.834 km
Speed7.53 km/s
Apparent Right ascension08h 51m 30s
Apparent Declination-47° 50' 28"
Sunlit
Object is in full shadow
Visualization observer readout
Local Sidereal Time00:23:15
Azimuth119.981° SE
Elevation-51.804°
Doppler factor1
Orbital elements
Apogee altitude639.865 km
Perigee altitude634.429 km
Semi-major axis7,015.284 km
Eccentricity0.0003874
Inclination97.7934°
RAAN85.1039°
Arg. of periapsis241.6899°
True anomaly118.43114°
Mean anomaly118.3921°
Eccentric anomaly118.41162°
Mean motion3.69382 °/min
BSTAR0.00028915
Orbital period97.46 mins
Loading maneuver chart data...
Loading historical data...
Loading historical data...
Loading historical data...
Loading historical data...
Loading historical data...
Loading historical data...
Loading historical data...

GAOFEN 1-03 Visibility forecast

Observer location: undefined°, undefined

Span
Click to sort rows by Start time (UTC) header in descending order
Start Az.
Max El. time (UTC)
Max El. Az.
Max El.
End time (UTC)
End Az.
4 mins2025-01-19 03:04:15.140Z89.703° E2025-01-19 03:06:15.140Z60.141° ENE14.26°2025-01-19 03:08:15.140Z32.534° NE
7 mins2025-01-19 04:39:15.140Z190.712° SSW2025-01-19 04:42:15.140Z270.849° WNW38°2025-01-19 04:46:15.140Z336.909° NNW
6 mins2025-01-19 16:30:15.140Z47.378° ENE2025-01-19 16:32:15.140Z86.438° E27.159°2025-01-19 16:36:15.140Z157.763° S
5 mins2025-01-19 18:07:15.140Z324.133° NNW2025-01-19 18:09:15.140Z286.291° WNW21.047°2025-01-19 18:12:15.140Z242.012° WSW
|